Kokomo, IN

8:43 PM EDT on April 22, 2018 (GMT -0400)
Kokomo Municipal

Weather History for KOKK - March, 2013

Change the Weather History Date:

Tuesday, March 19, 2013

  Actual Average (KGUS) Record (KGUS)
Temperature  
Mean Temperature 30 °F -  
Max Temperature 37 °F 46 °F 82 °F (2012)
Min Temperature 24 °F 29 °F 21 °F (2006)
Degree Days  
Heating Degree Days 34    
Moisture  
Dew Point 17 °F    
Average Humidity 61    
Maximum Humidity 74    
Minimum Humidity 48    
Precipitation  
Precipitation 0.00 in - - ()
Sea Level Pressure  
Sea Level Pressure 29.96 in    
Wind  
Wind Speed 24 mph (West)    
Max Wind Speed 37 mph    
Max Gust Speed 44 mph    
Visibility 10 miles    
Events      
Averages and records for this station are not official NWS values.
T = Trace of Precipitation, MM = Missing Value Source: NWS Daily Summary

Daily Weather History Graph

Daily Weather History Graph

Search for Another Location

Airport or City:

Astronomy

Mar. 19, 2013 Rise Set
Actual Time 6:48 AM CDT 6:55 PM CDT
Civil Twilight 6:21 AM CDT 7:22 PM CDT
Nautical Twilight 5:49 AM CDT 7:54 PM CDT
Astronomical Twilight 5:17 AM CDT 8:27 PM CDT
Moon 11:37 AM CDT (3/19) 1:43 AM CDT (3/19)
Length of Visible Light 13h 01m
Length of Day
12h 06m
Waxing Crescent, 50% of the Moon is Illuminated
Mar 19
Waxing Crescent
Mar 19
First Quarter
Mar 27
Full
Apr 2
Last Quarter
Apr 10
New

Hourly Weather History & Observations

Time (CDT) Temp. Windchill Dew Point Humidity Pressure Visibility Wind Dir Wind Speed Gust Speed Precip Events Conditions
12:15 AM 28.4 °F 15.1 °F 21.2 °F 74% 29.82 in 10.0 mi West 20.7 mph 28.8 mph N/A   Mostly Cloudy
12:35 AM 28.4 °F 15.4 °F 21.2 °F 74% 29.82 in 10.0 mi West 19.6 mph 32.2 mph N/A   Overcast
12:55 AM 26.6 °F 10.6 °F 19.4 °F 74% 29.81 in 10.0 mi West 28.8 mph 34.5 mph N/A   Mostly Cloudy
1:15 AM 26.6 °F 10.8 °F 17.6 °F 69% 29.83 in 10.0 mi West 27.6 mph 38.0 mph N/A   Mostly Cloudy
1:35 AM 26.6 °F 11.7 °F 17.6 °F 69% 29.84 in 10.0 mi West 24.2 mph 35.7 mph N/A   Overcast
1:55 AM 26.6 °F 10.6 °F 17.6 °F 69% 29.85 in 10.0 mi West 28.8 mph 34.5 mph N/A   Overcast
2:15 AM 26.6 °F 11.1 °F 17.6 °F 69% 29.86 in 10.0 mi West 26.5 mph 38.0 mph N/A   Overcast
2:55 AM 24.8 °F 7.6 °F 15.8 °F 69% 29.85 in 10.0 mi WNW 31.1 mph 36.8 mph N/A   Overcast
3:15 AM 24.8 °F 9.3 °F 15.8 °F 69% 29.86 in 10.0 mi West 24.2 mph 32.2 mph N/A   Overcast
3:35 AM 24.8 °F 10.3 °F 15.8 °F 69% 29.86 in 10.0 mi West 20.7 mph 29.9 mph N/A   Overcast
3:55 AM 24.8 °F 10.0 °F 15.8 °F 69% 29.85 in 10.0 mi West 21.9 mph 26.5 mph N/A   Overcast
4:15 AM 24.8 °F 9.3 °F 15.8 °F 69% 29.87 in 10.0 mi West 24.2 mph 31.1 mph N/A   Overcast
4:35 AM 24.8 °F 7.9 °F 17.6 °F 74% 29.88 in 10.0 mi West 29.9 mph 35.7 mph N/A   Overcast
4:55 AM 24.8 °F 8.7 °F 14.0 °F 64% 29.88 in 10.0 mi West 26.5 mph 35.7 mph N/A   Overcast
5:15 AM 24.8 °F 10.0 °F 15.8 °F 69% 29.89 in 10.0 mi West 21.9 mph 27.6 mph N/A   Overcast
5:35 AM 24.8 °F 11.1 °F 17.6 °F 74% 29.89 in 10.0 mi West 18.4 mph 25.3 mph N/A   Overcast
5:55 AM 24.8 °F 7.9 °F 14.0 °F 64% 29.89 in 10.0 mi West 29.9 mph - N/A   Mostly Cloudy
6:15 AM 24.8 °F 10.7 °F 17.6 °F 74% 29.89 in 10.0 mi West 19.6 mph - N/A   Mostly Cloudy
6:35 AM 24.8 °F 9.0 °F 15.8 °F 69% 29.89 in 10.0 mi West 25.3 mph 33.4 mph N/A   Mostly Cloudy
6:55 AM 24.8 °F 10.3 °F 15.8 °F 69% 29.89 in 10.0 mi West 20.7 mph 29.9 mph N/A   Mostly Cloudy
7:15 AM 24.8 °F 10.0 °F 14.0 °F 64% 29.90 in 10.0 mi West 21.9 mph 28.8 mph N/A   Mostly Cloudy
7:35 AM 24.8 °F 11.9 °F 15.8 °F 69% 29.90 in 10.0 mi West 16.1 mph 24.2 mph N/A   Mostly Cloudy
7:55 AM 24.8 °F 8.7 °F 12.2 °F 59% 29.91 in 10.0 mi West 26.5 mph 33.4 mph N/A   Partly Cloudy
8:15 AM 24.8 °F 10.7 °F 12.2 °F 59% 29.90 in 10.0 mi West 19.6 mph 39.1 mph N/A   Clear
8:35 AM 24.8 °F 10.0 °F 14.0 °F 64% 29.91 in 10.0 mi West 21.9 mph 33.4 mph N/A   Partly Cloudy
8:55 AM 26.6 °F 11.1 °F 14.0 °F 59% 29.91 in 10.0 mi West 26.5 mph 33.4 mph N/A   Scattered Clouds
9:15 AM 24.8 °F 8.1 °F 12.2 °F 59% 29.93 in 10.0 mi West 28.8 mph 38.0 mph N/A   Clear
9:35 AM 26.6 °F 10.8 °F 14.0 °F 59% 29.93 in 10.0 mi West 27.6 mph 36.8 mph N/A   Clear
9:55 AM 26.6 °F 10.8 °F 12.2 °F 55% 29.94 in 10.0 mi West 27.6 mph 38.0 mph N/A   Partly Cloudy
10:15 AM 26.6 °F 10.6 °F 14.0 °F 59% 29.94 in 10.0 mi West 28.8 mph 38.0 mph N/A   Mostly Cloudy
10:35 AM 26.6 °F 11.1 °F 15.8 °F 64% 29.94 in 10.0 mi West 26.5 mph 33.4 mph N/A   Scattered Clouds
10:55 AM 28.4 °F 13.0 °F 15.8 °F 59% 29.94 in 10.0 mi West 28.8 mph 36.8 mph N/A   Scattered Clouds
11:15 AM 28.4 °F 13.0 °F 15.8 °F 59% 29.95 in 10.0 mi West 28.8 mph 40.3 mph N/A   Scattered Clouds
11:35 AM 28.4 °F 12.0 °F 15.8 °F 59% 29.96 in 10.0 mi West 33.4 mph 39.1 mph N/A   Mostly Cloudy
11:55 AM 30.2 °F 15.9 °F 19.4 °F 64% 29.97 in 10.0 mi West 26.5 mph 34.5 mph N/A   Mostly Cloudy
12:15 PM 28.4 °F 12.5 °F 15.8 °F 59% 29.98 in 10.0 mi West 31.1 mph 39.1 mph N/A   Mostly Cloudy
12:35 PM 30.2 °F 15.2 °F 17.6 °F 60% 29.98 in 10.0 mi West 29.9 mph 40.3 mph N/A   Partly Cloudy
12:55 PM 30.2 °F 15.2 °F 17.6 °F 60% 30.00 in 10.0 mi West 29.9 mph 43.7 mph N/A   Scattered Clouds
1:15 PM 32.0 °F 16.3 °F 19.4 °F 60% 30.00 in 10.0 mi West 36.8 mph 42.6 mph N/A   Mostly Cloudy
1:35 PM 32.0 °F 17.0 °F 17.6 °F 55% 30.00 in 10.0 mi West 33.4 mph 43.7 mph N/A   Mostly Cloudy
1:55 PM 33.8 °F 20.1 °F 19.4 °F 56% 30.00 in 10.0 mi West 29.9 mph 40.3 mph N/A   Scattered Clouds
2:15 PM 33.8 °F 19.9 °F 19.4 °F 56% 30.00 in 10.0 mi West 31.1 mph 41.4 mph N/A   Partly Cloudy
2:35 PM 35.6 °F 23.2 °F 21.2 °F 56% 30.00 in 10.0 mi West 26.5 mph 36.8 mph N/A   Partly Cloudy
2:55 PM 35.6 °F 22.3 °F 19.4 °F 52% 30.00 in 10.0 mi West 31.1 mph 42.6 mph N/A   Partly Cloudy
3:15 PM 35.6 °F 23.0 °F 21.2 °F 56% 30.01 in 10.0 mi West 27.6 mph 42.6 mph N/A   Partly Cloudy
3:35 PM 35.6 °F 22.3 °F 19.4 °F 52% 30.00 in 10.0 mi West 31.1 mph 36.8 mph N/A   Clear
3:55 PM 35.6 °F 22.5 °F 19.4 °F 52% 30.01 in 10.0 mi West 29.9 mph 38.0 mph N/A   Clear
4:15 PM 37.4 °F 25.6 °F 19.4 °F 48% 30.01 in 10.0 mi WNW 26.5 mph 41.4 mph N/A   Clear
4:35 PM 37.4 °F 24.6 °F 19.4 °F 48% 30.02 in 10.0 mi West 32.2 mph 39.1 mph N/A   Clear
4:55 PM 37.4 °F 25.2 °F 19.4 °F 48% 30.02 in 10.0 mi West 28.8 mph 35.7 mph N/A   Clear
5:15 PM 37.4 °F 25.4 °F 19.4 °F 48% 30.02 in 10.0 mi West 27.6 mph 38.0 mph N/A   Clear
5:35 PM 37.4 °F 25.4 °F 19.4 °F 48% 30.03 in 10.0 mi West 27.6 mph 35.7 mph N/A   Clear
5:55 PM 35.6 °F 23.2 °F 19.4 °F 52% 30.04 in 10.0 mi West 26.5 mph 35.7 mph N/A   Clear
6:15 PM 35.6 °F 24.0 °F 19.4 °F 52% 30.04 in 10.0 mi West 23.0 mph 27.6 mph N/A   Clear
6:35 PM 35.6 °F 25.2 °F 17.6 °F 48% 30.04 in 10.0 mi WNW 18.4 mph - N/A   Clear
6:55 PM 35.6 °F 24.0 °F 19.4 °F 52% 30.05 in 10.0 mi West 23.0 mph 26.5 mph N/A   Clear
7:15 PM 33.8 °F 23.2 °F 17.6 °F 52% 30.05 in 10.0 mi WNW 17.3 mph - N/A   Clear
7:35 PM 33.8 °F 24.3 °F 19.4 °F 56% 30.06 in 10.0 mi West 13.8 mph - N/A   Clear
7:55 PM 33.8 °F 23.9 °F 21.2 °F 60% 30.06 in 10.0 mi West 15.0 mph - N/A   Clear
8:15 PM 33.8 °F 23.5 °F 19.4 °F 56% 30.07 in 10.0 mi West 16.1 mph 23.0 mph N/A   Clear
8:35 PM 33.8 °F 23.2 °F 19.4 °F 56% 30.07 in 10.0 mi West 17.3 mph - N/A   Clear
8:55 PM 33.8 °F 23.9 °F 19.4 °F 56% 30.07 in 10.0 mi West 15.0 mph - N/A   Clear
9:15 PM 32.0 °F 21.2 °F 19.4 °F 60% 30.07 in 10.0 mi West 16.1 mph - N/A   Clear
9:35 PM 32.0 °F 20.8 °F 19.4 °F 60% 30.07 in 10.0 mi West 17.3 mph 20.7 mph N/A   Clear
9:55 PM 32.0 °F 20.5 °F 19.4 °F 60% 30.07 in 10.0 mi West 18.4 mph 21.9 mph N/A   Clear
10:15 PM 30.2 °F 18.9 °F 19.4 °F 64% 30.07 in 10.0 mi West 16.1 mph - N/A   Clear
10:35 PM 30.2 °F 19.8 °F 19.4 °F 64% 30.07 in 10.0 mi West 13.8 mph - N/A   Clear
10:55 PM 30.2 °F 19.3 °F 17.6 °F 60% 30.07 in 10.0 mi West 15.0 mph - N/A   Clear
11:15 PM 30.2 °F 19.8 °F 17.6 °F 60% 30.07 in 10.0 mi West 13.8 mph - N/A   Clear
11:35 PM 30.2 °F 19.3 °F 17.6 °F 60% 30.07 in 10.0 mi West 15.0 mph 19.6 mph N/A   Clear
11:55 PM 30.2 °F 19.3 °F 17.6 °F 60% 30.06 in 10.0 mi WNW 15.0 mph - N/A   Clear